Location: Bosdarros
(43.2167°N, 0.3667°W)
Time: 02:44:58
(UTC+00:00)

SPOT 5 - Pass Details

Date: 22 April 2021
Orbit: 624 x 814 km, 98.2° (Epoch: 15 May)

Event Time Altitude Azimuth Distance (km) Brightness Sun altitude
Exits shadow 21:14:07 45° 76° (ENE) 935 3.2 -22.7°
Maximum altitude 21:14:16 45° 70° (ENE) 934 3.2 -22.7°
Drops below altitude 10° 21:18:51 10° 359° (N) 2,204 6.0 -23.2°
Sets 21:21:15 0° 353° (N) 3,161 7.0 -23.5°
